{"data":{"norad_id":65309,"epoch":"2026-09-21T21:50:37.677120Z","epoch_age_seconds":40406,"freshness":"FRESH","line1":"1 65309U 25187E   26264.91015830 -.00000103  00000+0  44421-4 0  9996","line2":"2 65309  50.0036 219.1133 0000940   6.1158 353.9725 13.29326845 52568","mean_motion":13.29326845,"eccentricity":9.4e-5,"inclination_deg":50.0036,"raan_deg":219.1133,"arg_perigee_deg":6.1158,"mean_anomaly_deg":353.9725,"bstar":4.4421e-5,"rev_number":5256,"period_min":108.32550364993,"perigee_km":1148.5958025273,"apogee_km":1150.0109613191,"semimajor_km":7527.4403819232,"source":"CELESTRAK","updated_at":"2026-09-22T09:00:30.257356Z"}}